Location: Dodgeville
(42.9600°N, 90.1300°W)
Time: 23:05:58
(UTC-06:00)

Uosat F - Visible Passes

Search period start: 22 February 2017 00:00
Search period end: 04 March 2017 00:00
Orbit: 751 x 760 km, 98.8° (Epoch: 22 February)

Date Brightness Start Highest point End Pass type
(mag) Time Alt. Az. Time Alt. Az. Time Alt. Az.
22 Feb 14.7 19:22:51 10° WSW 19:24:05 11° W 19:25:21 10° WNW visible
23 Feb 13.7 05:46:54 10° NE 05:51:03 25° E 05:55:09 10° SSE visible
23 Feb 13.5 18:40:00 10° SSW 18:44:11 26° W 18:48:24 10° NW visible
24 Feb 14.9 05:10:40 10° E 05:11:07 10° E 05:11:35 10° E visible
25 Feb 12.9 06:06:20 10° NNE 06:11:01 37° E 06:15:41 10° SSE visible
25 Feb 14.2 19:00:55 10° SW 19:04:13 17° W 19:07:32 10° NW visible
26 Feb 14.3 05:28:06 10° NE 05:31:13 16° E 05:34:19 10° SE visible
26 Feb 12.7 18:19:43 10° SSW 18:24:25 40° W 18:29:12 10° NNW visible
27 Feb 14.6 19:22:56 10° WSW 19:24:18 11° W 19:25:40 10° WNW visible
28 Feb 13.8 05:47:08 10° NE 05:51:16 25° E 05:55:20 10° SSE visible
28 Feb 13.5 18:40:11 10° SSW 18:44:24 27° W 18:48:39 10° NW visible
02 Mar 13.0 06:06:33 10° NNE 06:11:14 37° E 06:15:52 10° SSE visible
02 Mar 14.2 19:01:05 10° SW 19:04:26 18° W 19:07:47 10° NW visible
03 Mar 14.3 05:28:21 10° NE 05:31:26 16° E 05:34:29 10° SE visible
03 Mar 12.7 18:19:55 10° SSW 18:24:39 40° W 18:29:25 10° NNW visible
